[[{"header":{"parameterUnit":"m.s-1","parameterCategory":1,"la1":30.2991,"la2":30.254,"lo1":-89.0895,"lo2":-89.0444,"dy":0.0017,"dx":0.0017,"nx":28,"ny":28,"refTime":"2024-02-24T03:00:00:Z","depth":0,"parameterNumber":2,"parameterNumberName":"U-component_of_WINDS"},"data":[0,0,0,0,0,0,0,0,0,0,0,0,0,0,0,0,0,0,0,0,0,0,0,0,0,0,0,0,0,0,0,0,0,0,0,0,0,0,0,0,0,0,0,0,0,0,0,0,0,0,0,0,0,0,0,0,0,0,-2.818,-2.818,0,-2.8236,-2.8236,-2.8237,-2.8221,-2.8219,-2.8218,-2.8217,-2.8274,-2.8277,-2.8279,0,0,0,0,0,0,0,0,0,0,0,0,0,-2.806,-2.8062,-2.818,-2.8181,-2.8181,-2.8236,-2.8236,-2.8237,-2.8221,-2.8219,-2.8218,-2.8217,-2.8273,-2.8276,-2.8279,0,0,0,0,0,0,0,0,0,0,0,0,0,-2.8113,-2.8063,-2.818,-2.818,-2.818,-2.8236,-2.8237,-2.8237,-2.8221,-2.8219,-2.8218,-2.8216,-2.8272,-2.8276,-2.828,-2.8338,0,0,-2.8292,-2.8293,0,0,0,0,0,0,0,0,-2.811,-2.8118,-2.8179,-2.818,-2.818,-2.822,-2.8215,-2.8271,-2.8222,-2.8206,-2.8217,-2.8215,-2.8257,-2.8262,-2.8277,-2.8341,-2.8344,-2.8292,-2.8294,-2.8296,-2.8297,0,0,0,0,0,0,0,-2.8107,-2.8115,-2.8202,-2.818,-2.8181,-2.8177,-2.8183,-2.8226,-2.824,-2.8207,-2.8206,-2.8213,-2.8257,-2.8273,-2.8278,-2.8344,-2.8292,-2.8295,-2.8298,-2.8299,-2.8462,-2.8464,0,0,0,0,0,0,-2.8102,-2.8112,-2.82,-2.8204,-2.814,-2.8181,-2.8187,-2.8209,-2.824,-2.8243,-2.8214,-2.8212,-2.8267,-2.8273,-2.828,-2.8352,-2.8296,-2.83,-2.8302,-2.846,-2.8463,-2.8465,0,0,0,0,0,0,-2.81,-2.811,-2.8198,-2.8158,-2.8169,-2.8185,-2.8209,-2.8211,-2.8226,-2.8245,-2.8248,-2.8227,-2.8266,-2.8274,-2.8325,-2.8353,-2.8301,-2.8305,-2.8458,-2.8461,-2.8464,-2.8495,0,0,0,0,0,0,-2.8097,-2.811,-2.8132,-2.8158,-2.8171,-2.8241,-2.8211,-2.8213,-2.8233,-2.823,-2.8258,-2.8261,-2.8265,-2.8319,-2.8328,-2.8358,-2.8308,-2.8455,-2.8459,-2.8463,-2.8492,-2.8499,-2.8505,0,0,0,0,0,-2.8092,-2.8138,-2.8133,-2.8143,-2.8199,-2.8243,-2.825,-2.8254,-2.8235,-2.8258,-2.8271,-2.826,-2.8349,-2.8324,-2.8335,-2.8366,-2.8454,-2.8458,-2.8463,-2.8489,-2.8497,-2.8505,0,0,0,0,0,0,-2.8113,-2.8141,-2.8136,-2.8191,-2.8215,-2.824,-2.8269,-2.8263,-2.8292,-2.8288,-2.8292,-2.8298,-2.835,-2.8363,-2.8335,-2.8425,-2.8399,-2.8405,-2.8415,-2.8423,-2.843,-2.8425,-2.8311,0,0,0,0,0,-2.8124,-2.8158,-2.818,-2.8227,-2.8239,-2.8252,-2.8272,-2.8273,-2.8297,-2.8307,-2.8323,-2.8348,-2.8381,-2.8403,-2.8435,-2.8494,-2.85,-2.8521,-2.8527,-2.8533,-2.8538,-2.8572,-2.8582,-2.848,-2.848,-2.8479,0,0,-2.8147,-2.8167,-2.8187,-2.8232,-2.825,-2.8286,-2.8261,-2.8298,-2.8325,-2.8313,-2.8361,-2.8375,-2.8402,-2.8458,-2.8483,-2.847,-2.8568,-2.8538,-2.8543,-2.8545,-2.8578,-2.8587,-2.8596,-2.8483,-2.8482,-2.8482,0,0,-2.8207,-2.8225,-2.8266,-2.8286,-2.8315,-2.8323,-2.8334,-2.836,-2.8369,-2.8418,-2.841,-2.8442,-2.8499,-2.852,-2.8537,-2.8608,-2.86,-2.8618,-2.8653,-2.8686,-2.8694,-2.8701,-2.8727,-2.8737,-2.8624,-2.8624,-2.8624,0,-2.8231,-2.8284,-2.8288,-2.8328,-2.8348,-2.834,-2.8383,-2.8401,-2.8439,-2.8453,-2.8439,-2.8512,-2.853,-2.859,-2.8608,-2.8622,-2.8635,-2.8615,-2.8693,-2.87,-2.8707,-2.8732,-2.8741,-2.8626,-2.8626,-2.8626,-2.8626,0,-2.8314,-2.835,-2.8381,-2.8418,-2.8442,-2.8483,-2.8494,-2.8518,-2.8517,-2.8528,-2.8579,-2.8601,-2.8637,-2.8652,-2.8652,-2.8714,-2.8705,-2.8692,-2.8665,-2.8718,-2.8742,-2.8751,-2.8629,-2.8629,-2.8628,-2.8627,0,0,-2.8386,-2.8427,-2.8438,-2.8456,-2.8488,-2.8517,-2.8558,-2.8595,-2.8616,-2.8643,-2.8678,-2.8728,-2.8716,-2.8737,-2.8739,-2.8768,-2.8824,-2.8751,-2.8752,-2.8764,-2.8895,-2.8904,-2.8915,-2.8819,-2.8821,-2.8823,-2.8893,0,-2.8449,-2.8521,-2.8527,-2.8592,-2.8627,-2.8622,-2.8658,-2.8682,-2.8694,-2.8725,-2.8738,-2.8774,-2.8755,-2.8768,-2.8797,-2.8811,-2.885,-2.8806,-2.8852,-2.8854,-2.8845,-2.8927,-2.8937,-2.9002,-2.8902,-2.8903,-2.8904,0,-2.8531,-2.8562,-2.8631,-2.866,-2.8675,-2.8707,-2.8742,-2.8773,-2.8801,-2.8807,-2.8832,-2.8831,-2.8874,-2.8846,-2.8907,-2.8877,-2.8896,-2.8907,-2.8909,-2.8913,-2.8882,-2.8934,-2.9023,-2.9033,-2.8919,-2.8918,-2.8917,0,-2.8577,-2.8636,-2.8685,-2.8701,-2.8736,-2.8759,-2.8775,-2.8802,-2.8824,-2.8855,-2.887,-2.8905,-2.8925,-2.8953,-2.8962,-2.8941,-2.9022,-2.8995,-2.9029,-2.9029,-2.9046,-2.9045,-2.9139,-2.9059,-2.9059,-2.9059,-2.9058,0,-2.8647,-2.8689,-2.8707,-2.8737,-2.8785,-2.8793,-2.884,-2.8855,-2.8879,-2.8913,-2.891,-2.8942,-2.8952,-2.8986,-2.8993,-2.9043,-2.9052,-2.9059,-2.906,-2.9059,-2.9058,-2.9071,-2.9067,-2.9061,-2.9061,-2.906,-2.906,0,-2.8706,-2.8719,-2.8773,-2.8803,-2.8812,-2.8846,-2.8872,-2.8902,-2.8914,-2.8957,-2.8967,-2.8986,-2.9026,-2.9038,-2.9086,-2.9091,-2.9149,-2.9147,-2.914,-2.914,-2.9174,-2.917,-2.928,-2.9295,-2.9205,-2.9206,-2.9206,0,-2.8749,-2.8782,-2.8816,-2.8839,-2.8856,-2.8892,-2.8916,-2.8925,-2.895,-2.8986,-2.9011,-2.9051,-2.9083,-2.9147,-2.9165,-2.9203,-2.9201,-2.9237,-2.9206,-2.9205,-2.9202,-2.92,-2.9204,-2.9242,-2.9243,-2.9244,-2.9245,0,-2.8824,-2.883,-2.8864,-2.8901,-2.8929,-2.8958,-2.8986,-2.9005,-2.9019,-2.9047,-2.9088,-2.9113,-2.9163,-2.9203,-2.9241,-2.9258,-2.9254,-2.9255,-2.9264,-2.9263,-2.9258,-2.9262,-2.9155,-2.9252,-2.9251,-2.925,-2.925,-2.925,-2.8877,-2.8907,-2.8936,-2.8974,-2.8997,-2.9024,-2.9054,-2.9071,-2.9105,-2.9147,-2.9151,-2.9195,-2.9225,-2.9276,-2.9295,-2.9331,-2.932,-2.9335,-2.9338,-2.9342,-2.9345,-2.9253,-2.9338,-2.9338,-2.9337,-2.9337,-2.9337,0,-2.8952,-2.8972,-2.9007,-2.9047,-2.9078,-2.9073,-2.9105,-2.913,-2.917,-2.9198,-2.923,-2.9279,-2.9318,-2.934,-2.938,-2.9404,-2.9403,-2.9414,-2.9412,-2.9416,-2.9351,-2.9339,-2.9414,-2.9414,-2.9414,-2.9414,-2.9414,-2.9414,-2.8995,-2.9045,-2.9055,-2.9117,-2.9136,-2.9181,-2.9199,-2.9225,-2.9247,-2.9302,-2.9334,-2.9349,-2.9375,-2.9417,-2.9453,-2.9459,-2.9474,-2.9486,-2.949,-2.9429,-2.9421,-2.9413,-2.9402,-2.9489,-2.9489,-2.9552,-2.9553,-2.9553]},{"header":{"parameterUnit":"m.s-1","parameterCategory":1,"la1":30.2991,"la2":30.254,"lo1":-89.0895,"lo2":-89.0444,"dy":0.0017,"dx":0.0017,"nx":28,"ny":28,"refTime":"2024-02-24T03:00:00:Z","depth":0,"parameterNumber":3,"parameterNumberName":"V-component_of_WINDS"},"data":[0,0,0,0,0,0,0,0,0,0,0,0,0,0,0,0,0,0,0,0,0,0,0,0,0,0,0,0,0,0,0,0,0,0,0,0,0,0,0,0,0,0,0,0,0,0,0,0,0,0,0,0,0,0,0,0,0,0,0.648,0.648,0,0.6495,0.6495,0.6495,0.6521,0.6521,0.6522,0.6522,0.6536,0.6536,0.6536,0,0,0,0,0,0,0,0,0,0,0,0,0,0.6474,0.6474,0.648,0.648,0.648,0.6495,0.6495,0.6495,0.6521,0.6521,0.6522,0.6522,0.6536,0.6536,0.6536,0,0,0,0,0,0,0,0,0,0,0,0,0,0.6481,0.6474,0.648,0.6495,0.6496,0.6495,0.6495,0.6495,0.652,0.6521,0.6522,0.6522,0.6536,0.6536,0.6536,0.6521,0,0,0.6536,0.6536,0,0,0,0,0,0,0,0,0.6481,0.6481,0.6492,0.6494,0.6495,0.6507,0.6498,0.6504,0.652,0.6511,0.6522,0.6523,0.6526,0.6527,0.6528,0.6522,0.6522,0.6536,0.6536,0.6536,0.6536,0,0,0,0,0,0,0,0.648,0.6481,0.6486,0.6493,0.6494,0.6501,0.6503,0.6499,0.6514,0.6512,0.6514,0.6515,0.6527,0.6528,0.6528,0.6523,0.6536,0.6536,0.6536,0.6536,0.6507,0.6507,0,0,0,0,0,0,0.6478,0.648,0.6486,0.6486,0.649,0.65,0.6502,0.6502,0.6514,0.6517,0.6515,0.6516,0.6528,0.6528,0.6529,0.6513,0.6536,0.6536,0.6535,0.6508,0.6507,0.6506,0,0,0,0,0,0,0.6477,0.6478,0.6485,0.6484,0.6485,0.65,0.6499,0.6502,0.6503,0.6516,0.6519,0.6513,0.6528,0.6529,0.6523,0.6514,0.6535,0.6535,0.6509,0.6508,0.6507,0.6482,0,0,0,0,0,0,0.6477,0.6478,0.6472,0.6484,0.6485,0.6479,0.6499,0.6502,0.6503,0.6506,0.6516,0.6518,0.6529,0.6523,0.6523,0.6514,0.6535,0.651,0.6508,0.6507,0.6483,0.648,0.6477,0,0,0,0,0,0.6477,0.6464,0.6471,0.6472,0.6479,0.6478,0.6479,0.6492,0.6502,0.6497,0.6506,0.6518,0.6515,0.6523,0.6523,0.6514,0.651,0.6509,0.6507,0.6485,0.648,0.6477,0,0,0,0,0,0,0.6449,0.6465,0.6474,0.6464,0.647,0.6483,0.6476,0.6487,0.649,0.6492,0.6508,0.651,0.6502,0.6507,0.6515,0.6501,0.6515,0.6513,0.6498,0.6494,0.6491,0.6489,0.6535,0,0,0,0,0,0.6443,0.6441,0.6455,0.6445,0.6448,0.6461,0.6462,0.6472,0.6478,0.648,0.6488,0.6494,0.6494,0.6494,0.6496,0.6484,0.6487,0.6478,0.6475,0.6472,0.6471,0.6466,0.6463,0.6501,0.6501,0.6501,0,0,0.6428,0.6436,0.6434,0.644,0.6445,0.6444,0.6463,0.646,0.646,0.648,0.6475,0.6481,0.6489,0.6481,0.6477,0.6485,0.6461,0.647,0.6468,0.6468,0.6464,0.6461,0.6458,0.65,0.65,0.6501,0,0,0.64,0.6406,0.6399,0.6405,0.6413,0.6423,0.6421,0.6433,0.6438,0.6434,0.6449,0.6449,0.6449,0.6454,0.6456,0.6433,0.6444,0.6433,0.6416,0.6411,0.6408,0.6406,0.6398,0.6395,0.6431,0.6431,0.6431,0,0.6381,0.6379,0.6394,0.6391,0.6394,0.6413,0.6406,0.6411,0.6419,0.642,0.6428,0.643,0.6436,0.643,0.6425,0.6426,0.6425,0.6432,0.6408,0.6405,0.6403,0.6396,0.6393,0.643,0.643,0.643,0.643,0,0.6355,0.6354,0.6347,0.6356,0.6358,0.6353,0.6367,0.6367,0.6378,0.6386,0.6383,0.6391,0.6395,0.6394,0.6403,0.639,0.6394,0.6405,0.6419,0.6398,0.6391,0.6389,0.6428,0.6428,0.6429,0.6429,0,0,0.631,0.6328,0.6325,0.633,0.6341,0.6341,0.6337,0.6342,0.6342,0.6347,0.6345,0.6346,0.6357,0.6359,0.637,0.6366,0.6348,0.6377,0.6378,0.6372,0.6334,0.6327,0.6323,0.6356,0.6355,0.6355,0.6334,0,0.6285,0.628,0.6294,0.6286,0.6286,0.6305,0.6302,0.6309,0.6317,0.6318,0.6328,0.6328,0.6342,0.6344,0.6341,0.6351,0.6341,0.6352,0.6354,0.6354,0.6352,0.632,0.6311,0.6291,0.6332,0.6331,0.6331,0,0.6255,0.626,0.6251,0.6265,0.6265,0.6262,0.6269,0.6269,0.6278,0.6285,0.6289,0.6301,0.6299,0.6313,0.6311,0.6319,0.6321,0.6326,0.6325,0.6326,0.6341,0.632,0.6285,0.6282,0.6327,0.6327,0.6327,0,0.6223,0.6228,0.6224,0.6227,0.6243,0.624,0.6247,0.6256,0.6258,0.6264,0.6266,0.627,0.6273,0.6277,0.629,0.6299,0.6287,0.6302,0.6293,0.6292,0.6289,0.6289,0.6254,0.629,0.629,0.629,0.629,0,0.6194,0.6188,0.621,0.6208,0.6202,0.6219,0.6213,0.6222,0.623,0.623,0.6247,0.6246,0.6264,0.6266,0.6276,0.6274,0.6274,0.628,0.6283,0.6279,0.6278,0.628,0.6282,0.6289,0.6289,0.6289,0.6289,0,0.6157,0.6172,0.6169,0.6184,0.6188,0.6184,0.6197,0.6196,0.6206,0.6206,0.6206,0.6222,0.6225,0.624,0.6245,0.6253,0.6246,0.6252,0.6244,0.6245,0.6236,0.6237,0.6201,0.6197,0.6235,0.6235,0.6234,0,0.6138,0.6134,0.615,0.6151,0.6157,0.6159,0.6162,0.6178,0.6181,0.6192,0.6189,0.6193,0.6198,0.6202,0.6214,0.6219,0.6225,0.6212,0.6226,0.6222,0.6225,0.6226,0.6226,0.6209,0.6209,0.6208,0.6208,0,0.6102,0.6109,0.6113,0.612,0.6123,0.6129,0.6135,0.6136,0.6154,0.6156,0.616,0.6164,0.6171,0.6175,0.6182,0.6189,0.6202,0.6204,0.6202,0.6197,0.6193,0.6196,0.6236,0.6204,0.6205,0.6205,0.6205,0.6205,0.6073,0.6071,0.6083,0.6086,0.6094,0.61,0.61,0.6111,0.6114,0.6122,0.6132,0.6134,0.6145,0.6156,0.6162,0.6164,0.6171,0.6169,0.6168,0.6167,0.6165,0.6193,0.6166,0.6166,0.6166,0.6166,0.6166,0,0.6038,0.6047,0.6051,0.606,0.6064,0.6076,0.6085,0.6087,0.6089,0.6098,0.6102,0.6107,0.6112,0.6125,0.6131,0.6131,0.6137,0.6132,0.6132,0.6134,0.6158,0.6159,0.6127,0.6127,0.6127,0.6127,0.6127,0.6127,0.6021,0.6019,0.6028,0.603,0.6039,0.6042,0.6046,0.6052,0.6059,0.6064,0.6069,0.6078,0.6088,0.6096,0.6101,0.6105,0.6107,0.61,0.6105,0.6128,0.6132,0.6135,0.6136,0.61,0.61,0.6081,0.6081,0.6081]}]]